[[{"header":{"parameterUnit":"m.s-1","parameterCategory":1,"la1":30.2991,"la2":30.254,"lo1":-89.0895,"lo2":-89.0444,"dy":0.0017,"dx":0.0017,"nx":28,"ny":28,"refTime":"2023-09-25T21:00:00:Z","depth":0,"parameterNumber":2,"parameterNumberName":"U-component_of_WINDS"},"data":[0,0,0,0,0,0,0,0,0,0,0,0,0,0,0,0,0,0,0,0,0,0,0,0,0,0,0,0,0,0,0,0,0,0,0,0,0,0,0,0,0,0,0,0,0,0,0,0,0,0,0,0,0,0,0,0,0,0,-1.6777,-1.6777,0,-1.6739,-1.6738,-1.6738,-1.6651,-1.665,-1.6648,-1.6646,-1.6609,-1.6609,-1.661,0,0,0,0,0,0,0,0,0,0,0,0,0,-1.6778,-1.6779,-1.6777,-1.6777,-1.6776,-1.6739,-1.6738,-1.6738,-1.6652,-1.665,-1.6647,-1.6645,-1.6609,-1.6609,-1.661,0,0,0,0,0,0,0,0,0,0,0,0,0,-1.6763,-1.6779,-1.6777,-1.6729,-1.6724,-1.6739,-1.6738,-1.6738,-1.6652,-1.665,-1.6647,-1.6644,-1.6608,-1.6609,-1.661,-1.667,0,0,-1.6613,-1.6614,0,0,0,0,0,0,0,0,-1.6764,-1.6763,-1.6737,-1.6732,-1.6727,-1.6697,-1.6725,-1.6715,-1.6653,-1.668,-1.6646,-1.6643,-1.664,-1.6639,-1.6637,-1.6668,-1.6666,-1.6613,-1.6614,-1.6614,-1.6615,0,0,0,0,0,0,0,-1.6765,-1.6764,-1.6762,-1.6736,-1.673,-1.671,-1.6704,-1.6722,-1.6676,-1.6677,-1.6671,-1.6667,-1.6637,-1.6637,-1.6636,-1.6666,-1.6613,-1.6614,-1.6615,-1.6615,-1.6742,-1.6745,0,0,0,0,0,0,-1.6773,-1.6765,-1.6763,-1.6761,-1.6739,-1.6712,-1.6706,-1.6709,-1.6675,-1.6667,-1.667,-1.6663,-1.6636,-1.6635,-1.6634,-1.6701,-1.6614,-1.6615,-1.6616,-1.6739,-1.6743,-1.6746,0,0,0,0,0,0,-1.6773,-1.6773,-1.6765,-1.6761,-1.6759,-1.6715,-1.6719,-1.671,-1.6709,-1.6669,-1.6661,-1.6677,-1.6634,-1.6633,-1.6661,-1.6698,-1.6616,-1.6617,-1.6736,-1.6741,-1.6744,-1.6835,0,0,0,0,0,0,-1.6774,-1.6774,-1.6796,-1.6763,-1.6759,-1.6792,-1.6721,-1.6711,-1.6711,-1.6702,-1.6674,-1.6667,-1.6632,-1.666,-1.6662,-1.6698,-1.6617,-1.6733,-1.6738,-1.6743,-1.6828,-1.6842,-1.6853,0,0,0,0,0,-1.6774,-1.6823,-1.6797,-1.6798,-1.6785,-1.6795,-1.6793,-1.6751,-1.6714,-1.6736,-1.671,-1.6668,-1.6694,-1.6664,-1.6665,-1.6702,-1.673,-1.6737,-1.6743,-1.6823,-1.6839,-1.6853,0,0,0,0,0,0,-1.6863,-1.6818,-1.6789,-1.6829,-1.6816,-1.678,-1.6806,-1.6769,-1.6767,-1.6759,-1.6708,-1.6702,-1.6737,-1.6723,-1.669,-1.6757,-1.6705,-1.6712,-1.6766,-1.6781,-1.6793,-1.6795,-1.6618,0,0,0,0,0,-1.6887,-1.6898,-1.6858,-1.6898,-1.6892,-1.6851,-1.6853,-1.6822,-1.6807,-1.6801,-1.6777,-1.6765,-1.677,-1.6775,-1.6777,-1.6826,-1.6818,-1.6852,-1.6864,-1.6875,-1.6881,-1.6905,-1.692,-1.6766,-1.6766,-1.6766,0,0,-1.6937,-1.6914,-1.6924,-1.6915,-1.6901,-1.6914,-1.6847,-1.6863,-1.6872,-1.6804,-1.6828,-1.6811,-1.6794,-1.6832,-1.6848,-1.6821,-1.6922,-1.6883,-1.6891,-1.6892,-1.6913,-1.6928,-1.6941,-1.6771,-1.677,-1.6769,0,0,-1.7035,-1.7019,-1.7049,-1.7037,-1.7017,-1.6989,-1.6996,-1.6966,-1.6951,-1.6975,-1.6924,-1.6934,-1.6945,-1.6934,-1.693,-1.7024,-1.6985,-1.7026,-1.7091,-1.7115,-1.7127,-1.7137,-1.717,-1.7183,-1.7033,-1.7033,-1.7033,0,-1.71,-1.7116,-1.707,-1.7089,-1.7086,-1.7025,-1.7055,-1.7046,-1.7028,-1.7028,-1.6998,-1.7009,-1.6993,-1.7028,-1.7051,-1.705,-1.7057,-1.7029,-1.7129,-1.7139,-1.7148,-1.7179,-1.7191,-1.7038,-1.7038,-1.7037,-1.7037,0,-1.7197,-1.7209,-1.7236,-1.722,-1.722,-1.7246,-1.7203,-1.7209,-1.7178,-1.7153,-1.7179,-1.7158,-1.7154,-1.7161,-1.7131,-1.7192,-1.7175,-1.7138,-1.7084,-1.7168,-1.7196,-1.7208,-1.7046,-1.7044,-1.7042,-1.7041,0,0,-1.7349,-1.7307,-1.7317,-1.7309,-1.7282,-1.7291,-1.7314,-1.731,-1.7316,-1.7306,-1.7324,-1.7334,-1.7298,-1.7294,-1.7262,-1.7284,-1.7359,-1.7243,-1.7242,-1.7265,-1.7424,-1.7452,-1.7467,-1.7333,-1.7335,-1.7337,-1.7425,0,-1.744,-1.7475,-1.7434,-1.7478,-1.7488,-1.743,-1.7449,-1.7436,-1.7413,-1.7419,-1.7395,-1.7402,-1.7356,-1.7353,-1.7371,-1.7346,-1.739,-1.7339,-1.7349,-1.735,-1.7354,-1.7481,-1.7511,-1.7595,-1.7436,-1.7438,-1.7439,0,-1.7551,-1.7545,-1.759,-1.756,-1.7563,-1.7581,-1.7574,-1.7581,-1.7564,-1.7546,-1.7542,-1.7503,-1.7523,-1.7472,-1.7499,-1.7465,-1.7467,-1.7455,-1.7457,-1.7456,-1.7399,-1.7483,-1.7621,-1.7634,-1.7456,-1.7455,-1.7454,0,-1.7657,-1.7661,-1.7687,-1.7682,-1.7648,-1.7662,-1.7649,-1.763,-1.763,-1.7624,-1.7624,-1.7621,-1.762,-1.7619,-1.7581,-1.7547,-1.7613,-1.7558,-1.7598,-1.7599,-1.7614,-1.7614,-1.7754,-1.7617,-1.7617,-1.7616,-1.7616,0,-1.7762,-1.7792,-1.7734,-1.7751,-1.7783,-1.7735,-1.7768,-1.7749,-1.7732,-1.7744,-1.7694,-1.7707,-1.7656,-1.7663,-1.7634,-1.7661,-1.7661,-1.7647,-1.7639,-1.7651,-1.7653,-1.7651,-1.7644,-1.762,-1.7619,-1.7618,-1.7618,0,-1.7885,-1.7848,-1.7874,-1.7839,-1.7831,-1.7856,-1.7827,-1.7841,-1.7815,-1.7831,-1.7832,-1.7792,-1.7798,-1.7761,-1.776,-1.774,-1.7781,-1.7763,-1.7787,-1.7781,-1.7823,-1.7819,-1.7967,-1.7983,-1.7836,-1.7838,-1.7839,0,-1.7955,-1.7976,-1.7944,-1.7948,-1.7937,-1.7944,-1.7944,-1.7899,-1.7901,-1.7883,-1.79,-1.7901,-1.79,-1.7913,-1.7884,-1.7883,-1.7864,-1.7916,-1.7864,-1.7875,-1.7864,-1.7863,-1.7865,-1.7927,-1.7929,-1.793,-1.7931,0,-1.8081,-1.8062,-1.8063,-1.8058,-1.8059,-1.8054,-1.8045,-1.8051,-1.8002,-1.8007,-1.8012,-1.8011,-1.801,-1.8012,-1.8006,-1.7992,-1.7954,-1.7948,-1.7957,-1.797,-1.7982,-1.7975,-1.7815,-1.7945,-1.7943,-1.7943,-1.7942,-1.7941,-1.8179,-1.8195,-1.8175,-1.8178,-1.8166,-1.8159,-1.817,-1.8146,-1.8149,-1.8144,-1.8117,-1.8127,-1.811,-1.8097,-1.8087,-1.8095,-1.807,-1.8084,-1.8087,-1.8091,-1.8098,-1.7982,-1.8094,-1.8093,-1.8093,-1.8092,-1.8092,0,-1.8302,-1.8286,-1.829,-1.8278,-1.8281,-1.8244,-1.8232,-1.8237,-1.8246,-1.8233,-1.8233,-1.8239,-1.8241,-1.8212,-1.821,-1.8222,-1.8204,-1.8223,-1.8221,-1.8219,-1.812,-1.8112,-1.8237,-1.8237,-1.8237,-1.8237,-1.8237,-1.8237,-1.8367,-1.8392,-1.837,-1.8388,-1.8372,-1.8381,-1.8377,-1.837,-1.8359,-1.8368,-1.8369,-1.835,-1.8331,-1.8327,-1.8328,-1.8319,-1.8321,-1.8346,-1.8331,-1.824,-1.8226,-1.8212,-1.8204,-1.8347,-1.8347,-1.8429,-1.843,-1.843]},{"header":{"parameterUnit":"m.s-1","parameterCategory":1,"la1":30.2991,"la2":30.254,"lo1":-89.0895,"lo2":-89.0444,"dy":0.0017,"dx":0.0017,"nx":28,"ny":28,"refTime":"2023-09-25T21:00:00:Z","depth":0,"parameterNumber":3,"parameterNumberName":"V-component_of_WINDS"},"data":[0,0,0,0,0,0,0,0,0,0,0,0,0,0,0,0,0,0,0,0,0,0,0,0,0,0,0,0,0,0,0,0,0,0,0,0,0,0,0,0,0,0,0,0,0,0,0,0,0,0,0,0,0,0,0,0,0,0,-1.1243,-1.1244,0,-1.1365,-1.1366,-1.1368,-1.1455,-1.1455,-1.1456,-1.1457,-1.1579,-1.1581,-1.1584,0,0,0,0,0,0,0,0,0,0,0,0,0,-1.1082,-1.1084,-1.1243,-1.1244,-1.1246,-1.1365,-1.1366,-1.1368,-1.1455,-1.1456,-1.1456,-1.1457,-1.1578,-1.1581,-1.1584,0,0,0,0,0,0,0,0,0,0,0,0,0,-1.1172,-1.1085,-1.1243,-1.1303,-1.131,-1.1364,-1.1366,-1.1368,-1.1454,-1.1456,-1.1457,-1.1458,-1.1577,-1.1581,-1.1584,-1.1587,0,0,-1.1596,-1.1598,0,0,0,0,0,0,0,0,-1.1167,-1.1178,-1.1293,-1.1299,-1.1307,-1.1396,-1.1354,-1.1441,-1.1454,-1.14,-1.1457,-1.1458,-1.1517,-1.1526,-1.1546,-1.1592,-1.1598,-1.1597,-1.1599,-1.1601,-1.1602,0,0,0,0,0,0,0,-1.1161,-1.1173,-1.1291,-1.1295,-1.1303,-1.1324,-1.1338,-1.1371,-1.145,-1.1404,-1.1411,-1.1424,-1.1521,-1.1542,-1.155,-1.1599,-1.1596,-1.16,-1.1602,-1.1604,-1.1653,-1.1652,0,0,0,0,0,0,-1.1145,-1.1168,-1.1287,-1.1295,-1.1238,-1.1326,-1.1342,-1.1366,-1.145,-1.1464,-1.1423,-1.1428,-1.1535,-1.1545,-1.1554,-1.1562,-1.16,-1.1604,-1.1606,-1.1654,-1.1653,-1.1651,0,0,0,0,0,0,-1.1142,-1.1155,-1.1282,-1.1233,-1.1251,-1.1327,-1.1354,-1.1368,-1.139,-1.1465,-1.1479,-1.1431,-1.1536,-1.1549,-1.1578,-1.1567,-1.1606,-1.1609,-1.1655,-1.1653,-1.1652,-1.1577,0,0,0,0,0,0,-1.1137,-1.1153,-1.1156,-1.1233,-1.1253,-1.1305,-1.1354,-1.137,-1.1396,-1.1403,-1.1476,-1.1489,-1.1538,-1.1572,-1.1582,-1.1573,-1.1612,-1.1656,-1.1654,-1.1652,-1.158,-1.1573,-1.1566,0,0,0,0,0,-1.1131,-1.1129,-1.1155,-1.1169,-1.1258,-1.1304,-1.1316,-1.1373,-1.1395,-1.1397,-1.1446,-1.1486,-1.1567,-1.1574,-1.1586,-1.1578,-1.1657,-1.1655,-1.1653,-1.1584,-1.1574,-1.1566,0,0,0,0,0,0,-1.1048,-1.114,-1.117,-1.1194,-1.1241,-1.1319,-1.1323,-1.1362,-1.1402,-1.1407,-1.1477,-1.1492,-1.1514,-1.1549,-1.1556,-1.1584,-1.1617,-1.1617,-1.156,-1.1552,-1.1545,-1.1535,-1.1616,0,0,0,0,0,-1.1033,-1.1064,-1.1142,-1.1155,-1.1177,-1.1246,-1.1268,-1.1309,-1.136,-1.1379,-1.143,-1.1476,-1.1512,-1.1534,-1.1572,-1.1586,-1.1603,-1.1587,-1.158,-1.1574,-1.1572,-1.1582,-1.1575,-1.1644,-1.1644,-1.1644,0,0,-1.1001,-1.1055,-1.107,-1.114,-1.1181,-1.121,-1.1262,-1.1291,-1.1313,-1.1383,-1.1414,-1.1453,-1.1509,-1.1531,-1.1543,-1.1561,-1.1557,-1.1571,-1.1565,-1.1567,-1.1578,-1.1572,-1.1566,-1.1642,-1.1643,-1.1643,0,0,-1.0958,-1.1003,-1.1019,-1.1059,-1.112,-1.1166,-1.1169,-1.1242,-1.127,-1.1303,-1.1356,-1.1382,-1.1443,-1.1481,-1.1508,-1.1479,-1.1517,-1.1489,-1.1451,-1.146,-1.1454,-1.145,-1.1438,-1.1433,-1.1488,-1.1488,-1.1488,0,-1.0911,-1.0958,-1.1021,-1.1047,-1.1075,-1.1142,-1.1157,-1.1193,-1.1263,-1.128,-1.13,-1.1377,-1.142,-1.1451,-1.1444,-1.1464,-1.1469,-1.1481,-1.145,-1.1446,-1.1443,-1.1433,-1.1428,-1.1484,-1.1484,-1.1485,-1.1485,0,-1.0896,-1.0928,-1.0933,-1.0999,-1.1029,-1.1049,-1.1114,-1.1136,-1.1174,-1.1217,-1.1248,-1.1302,-1.1351,-1.1362,-1.1399,-1.1397,-1.1407,-1.1437,-1.1471,-1.1431,-1.1423,-1.1419,-1.1478,-1.148,-1.1481,-1.1482,0,0,-1.0804,-1.0906,-1.0906,-1.0937,-1.101,-1.1035,-1.1057,-1.1106,-1.1123,-1.1169,-1.1189,-1.1239,-1.1267,-1.1298,-1.134,-1.1347,-1.1319,-1.1377,-1.138,-1.1363,-1.132,-1.1295,-1.1289,-1.1346,-1.1345,-1.1345,-1.1314,0,-1.0771,-1.0817,-1.0874,-1.09,-1.0929,-1.0992,-1.1012,-1.1058,-1.1099,-1.1129,-1.1174,-1.1208,-1.1244,-1.1263,-1.1273,-1.132,-1.1311,-1.1324,-1.1363,-1.1364,-1.1346,-1.1285,-1.126,-1.1228,-1.1312,-1.1311,-1.1311,0,-1.0739,-1.0782,-1.081,-1.088,-1.0895,-1.0911,-1.096,-1.0989,-1.1042,-1.1071,-1.1105,-1.115,-1.1177,-1.1207,-1.1244,-1.1251,-1.127,-1.1296,-1.1296,-1.1301,-1.1334,-1.1287,-1.122,-1.1214,-1.1306,-1.1307,-1.1307,0,-1.0667,-1.0732,-1.0758,-1.0782,-1.0864,-1.0874,-1.0909,-1.0963,-1.0989,-1.1031,-1.1048,-1.1093,-1.1116,-1.1149,-1.1205,-1.1223,-1.1235,-1.1271,-1.1258,-1.1257,-1.1257,-1.1256,-1.119,-1.1271,-1.1272,-1.1272,-1.1272,0,-1.0623,-1.0638,-1.0726,-1.0742,-1.0759,-1.0825,-1.0841,-1.0881,-1.0929,-1.0952,-1.101,-1.103,-1.1103,-1.1132,-1.1176,-1.1198,-1.1209,-1.1232,-1.1243,-1.1226,-1.1223,-1.1239,-1.1242,-1.127,-1.1271,-1.1271,-1.1271,0,-1.0545,-1.0606,-1.0637,-1.0713,-1.0732,-1.0741,-1.0806,-1.0822,-1.0867,-1.0896,-1.0906,-1.0976,-1.1012,-1.1072,-1.1126,-1.1155,-1.1169,-1.1189,-1.1151,-1.1158,-1.1142,-1.1142,-1.1083,-1.1078,-1.1163,-1.1162,-1.1161,0,-1.0513,-1.0526,-1.0603,-1.0623,-1.0656,-1.0688,-1.0714,-1.0779,-1.0804,-1.0865,-1.0874,-1.0916,-1.0952,-1.1008,-1.1062,-1.1103,-1.1124,-1.11,-1.113,-1.1112,-1.1122,-1.112,-1.112,-1.1093,-1.1091,-1.1091,-1.109,0,-1.0449,-1.0478,-1.0514,-1.056,-1.059,-1.063,-1.0672,-1.0685,-1.0759,-1.0784,-1.0823,-1.0851,-1.0907,-1.0946,-1.0996,-1.103,-1.1071,-1.108,-1.1079,-1.1061,-1.1038,-1.1049,-1.1131,-1.1081,-1.1082,-1.1082,-1.1083,-1.1083,-1.0392,-1.0406,-1.0462,-1.05,-1.0539,-1.0577,-1.0596,-1.0643,-1.0677,-1.0728,-1.0764,-1.08,-1.0852,-1.0923,-1.0955,-1.0983,-1.1002,-1.1001,-1.1,-1.0998,-1.0991,-1.1035,-1.0992,-1.0993,-1.0993,-1.0993,-1.0994,0,-1.0329,-1.0369,-1.0403,-1.0461,-1.049,-1.0529,-1.0577,-1.0599,-1.063,-1.0676,-1.0711,-1.0755,-1.0794,-1.0851,-1.0895,-1.0906,-1.0926,-1.0915,-1.0914,-1.0921,-1.0973,-1.0969,-1.0898,-1.0898,-1.0898,-1.0898,-1.0898,-1.0898,-1.03,-1.0325,-1.0361,-1.0405,-1.0445,-1.0481,-1.0505,-1.054,-1.0577,-1.0624,-1.0657,-1.0695,-1.0745,-1.0792,-1.0829,-1.0845,-1.0857,-1.084,-1.0861,-1.0909,-1.0917,-1.0926,-1.0922,-1.0843,-1.0842,-1.0807,-1.0807,-1.0806]}]]